Date String (YYYY-MM-DD hh:mm:ss) UTC,Instrument flags,Ambient pressure (hPa),Sample flow (lpm),Bypass flow (lpm),Sample temperature (°C),Ambient temperature (°C),ASC tube jacket temperature (°C),LED temperature (°C),Box temperature (°C),Sample RH (%),Span deviation,Mass concentration (μg/m³),Mass concentration (μg/m³),Mass concentration (μg/m³)
DateTimeUTC,F1_M11,P_M11,Q1_M11,Q2_M11,T1_M11,T2_M11,T3_M11,T4_M11,T5_M11,U1_M11,ZSPAN_M11,X2_M11,X0_M11,X1_M11
2022-11-07 12:00:00,,0826.0,5.00,0.00,22.5,21.8,00.0,31.1,24.5,12.6,0000.0,0003.33,0010.25,0002.37
2022-11-07 12:01:00,,0825.9,4.99,0.00,22.5,21.6,00.0,31.1,24.4,12.7,0000.0,0003.37,0010.92,0002.37
2022-11-07 12:02:00,,0825.7,5.00,0.00,22.5,21.5,00.0,31.1,24.4,12.7,0000.0,0003.36,0010.83,0002.38
2022-11-07 12:03:00,,0825.7,5.00,0.00,22.5,21.4,00.0,31.2,24.4,12.7,0000.0,0003.37,0011.15,0002.40
2022-11-07 12:04:00,,0825.7,5.01,0.00,22.5,21.4,00.0,31.2,24.4,12.7,0000.0,0003.39,0010.97,0002.41
2022-11-07 12:05:00,,0825.7,5.00,0.00,22.5,21.3,00.0,31.2,24.4,12.7,0000.0,0003.39,0010.95,0002.42
2022-11-07 12:06:00,,0825.7,5.00,0.00,22.5,21.2,00.0,31.2,24.3,12.7,0000.0,0003.39,0010.59,0002.43
2022-11-07 12:07:00,,0825.7,5.01,0.00,22.4,21.2,00.0,31.2,24.3,12.7,0000.0,0003.39,0010.59,0002.43
2022-11-07 12:08:00,,0825.7,4.98,0.00,22.4,21.1,00.0,31.2,24.3,12.8,0000.0,0003.38,0010.35,0002.45
2022-11-07 12:09:00,,0825.6,5.00,0.00,22.4,21.1,00.0,31.2,24.3,12.8,0000.0,0003.35,0009.83,0002.45
2022-11-07 12:10:00,,0825.7,5.00,0.00,22.4,21.1,00.0,31.2,24.3,12.8,0000.0,0003.34,0009.25,0002.47
2022-11-07 12:11:00,,0825.7,5.01,0.00,22.4,21.0,00.0,31.2,24.3,12.7,0000.0,0003.33,0009.18,0002.48
2022-11-07 12:12:00,,0825.7,4.99,0.00,22.4,21.0,00.0,31.2,24.3,12.7,0000.0,0003.31,0008.47,0002.50
2022-11-07 12:13:00,,0825.6,5.00,0.00,22.4,21.0,00.0,31.2,24.2,12.6,0000.0,0003.32,0008.49,0002.50
2022-11-07 12:14:00,,0825.7,5.01,0.00,22.4,21.0,00.0,31.2,24.2,12.6,0000.0,0003.31,0007.99,0002.50
2022-11-07 12:15:00,,0825.8,5.01,0.00,22.4,21.0,00.0,31.2,24.2,12.6,0000.0,0003.29,0007.66,0002.50
2022-11-07 12:16:00,,0826.0,4.98,0.00,22.4,20.9,00.0,31.2,24.2,12.6,0000.0,0003.28,0007.66,0002.49
2022-11-07 12:17:00,,0825.8,5.00,0.00,22.3,20.9,00.0,31.1,24.2,12.7,0000.0,0003.29,0007.69,0002.48
2022-11-07 12:18:00,,0825.7,5.01,0.00,22.3,20.9,00.0,31.1,24.2,12.6,0000.0,0003.28,0007.69,0002.48
2022-11-07 12:19:00,,0825.7,4.99,0.00,22.3,20.9,00.0,31.1,24.2,12.6,0000.0,0003.30,0007.85,0002.46
2022-11-07 12:20:00,,0825.7,5.00,0.00,22.3,20.9,00.0,31.1,24.2,12.5,0000.0,0003.30,0007.72,0002.46
2022-11-07 12:21:00,,0825.7,5.00,0.00,22.3,20.9,00.0,31.1,24.2,12.5,0000.0,0003.30,0007.82,0002.45
2022-11-07 12:22:00,,0825.8,4.99,0.00,22.3,20.9,00.0,31.1,24.2,12.5,0000.0,0003.32,0007.83,0002.43
2022-11-07 12:23:00,,0825.7,5.00,0.00,22.3,20.9,00.0,31.1,24.2,12.4,0000.0,0003.33,0008.41,0002.40
2022-11-07 12:24:00,,0825.7,5.00,0.00,22.3,20.9,00.0,31.1,24.2,12.4,0000.0,0003.35,0009.35,0002.37
2022-11-07 12:25:00,,0825.6,4.99,0.00,22.3,20.9,00.0,31.1,24.2,12.4,0000.0,0003.34,0009.87,0002.33
2022-11-07 12:26:00,,0825.6,5.00,0.00,22.3,21.1,00.0,31.1,24.2,12.4,0000.0,0003.39,0010.33,0002.32
2022-11-07 12:27:00,,0825.7,5.01,0.00,22.4,21.9,00.0,31.1,24.4,12.4,0000.0,0003.40,0010.48,0002.29
2022-11-07 12:28:00,,0825.7,4.99,0.00,22.5,22.4,00.0,31.1,24.6,12.3,0000.0,0003.39,0010.26,0002.27
2022-11-07 12:29:00,,0825.7,4.99,0.00,22.5,22.2,00.0,31.1,24.6,12.3,0000.0,0003.39,0010.27,0002.24
2022-11-07 12:30:00,,0825.7,5.02,0.00,22.5,21.9,00.0,31.2,24.6,12.2,0000.0,0003.39,0010.17,0002.22
2022-11-07 12:31:00,,0825.7,4.99,0.00,22.5,21.8,00.0,31.2,24.5,12.2,0000.0,0003.39,0010.14,0002.19
2022-11-07 12:32:00,,0825.7,4.99,0.00,22.5,21.7,00.0,31.2,24.5,12.2,0000.0,0003.39,0010.05,0002.16
2022-11-07 12:33:00,,0825.7,5.00,0.00,22.5,21.5,00.0,31.2,24.5,12.2,0000.0,0003.38,0010.49,0002.14
2022-11-07 12:34:00,,0825.7,5.01,0.00,22.5,21.4,00.0,31.2,24.4,12.2,0000.0,0003.35,0010.96,0002.12
2022-11-07 12:35:00,,0825.6,5.00,0.00,22.5,21.3,00.0,31.2,24.4,12.3,0000.0,0003.30,0010.63,0002.11
2022-11-07 12:36:00,,0825.7,5.00,0.00,22.5,21.3,00.0,31.3,24.4,12.3,0000.0,0003.27,0010.06,0002.09
2022-11-07 12:37:00,,0825.7,5.01,0.00,22.5,21.2,00.0,31.3,24.4,12.3,0000.0,0003.22,0009.66,0002.06
2022-11-07 12:38:00,,0825.7,4.98,0.00,22.5,21.2,00.0,31.2,24.4,12.3,0000.0,0003.18,0009.29,0002.03
2022-11-07 12:39:00,,0825.7,5.00,0.00,22.5,21.1,00.0,31.3,24.4,12.4,0000.0,0003.15,0009.12,0002.02
2022-11-07 12:40:00,,0825.7,5.01,0.00,22.5,21.1,00.0,31.2,24.3,12.4,0000.0,0003.19,0009.79,0002.01
2022-11-07 12:41:00,,0825.6,5.00,0.00,22.5,21.1,00.0,31.2,24.4,12.4,0000.0,0003.20,0010.17,0002.00
2022-11-07 12:42:00,,0825.6,4.99,0.00,22.5,21.1,00.0,31.2,24.3,12.4,0000.0,0003.20,0010.21,0001.98
2022-11-07 12:43:00,,0825.6,5.00,0.00,22.5,21.1,00.0,31.2,24.3,12.4,0000.0,0003.23,0010.40,0001.99
2022-11-07 12:44:00,,0825.6,5.00,0.00,22.5,21.1,00.0,31.2,24.3,12.4,0000.0,0003.19,0009.85,0001.99
2022-11-07 12:45:00,,0825.6,5.00,0.00,22.4,21.1,00.0,31.2,24.3,12.4,0000.0,0003.20,0009.15,0002.00
2022-11-07 12:46:00,,0825.7,5.01,0.00,22.4,21.0,00.0,31.2,24.3,12.4,0000.0,0003.20,0008.94,0002.00
2022-11-07 12:47:00,,0825.7,4.99,0.00,22.4,21.0,00.0,31.2,24.2,12.4,0000.0,0003.19,0008.89,0002.00
2022-11-07 12:48:00,,0825.7,4.99,0.00,22.4,21.0,00.0,31.2,24.2,12.4,0000.0,0003.20,0008.91,0002.01
2022-11-07 12:49:00,,0825.6,4.99,0.00,22.4,21.0,00.0,31.2,24.2,12.5,0000.0,0003.21,0010.06,0002.02
2022-11-07 12:50:00,,0825.6,5.00,0.00,22.4,21.0,00.0,31.2,24.2,12.5,0000.0,0003.20,0010.70,0002.01
2022-11-07 12:51:00,,0825.7,5.00,0.00,22.4,21.0,00.0,31.2,24.2,12.5,0000.0,0003.19,0010.15,0002.00
2022-11-07 12:52:00,,0825.7,5.01,0.00,22.4,21.0,00.0,31.2,24.2,12.5,0000.0,0003.16,0009.76,0002.01
2022-11-07 12:53:00,,0825.8,5.00,0.00,22.4,20.9,00.0,31.2,24.2,12.5,0000.0,0003.15,0009.67,0002.03
2022-11-07 12:54:00,,0825.7,4.98,0.00,22.3,20.9,00.0,31.2,24.2,12.5,0000.0,0003.12,0009.48,0002.03
2022-11-07 12:55:00,,0825.7,5.01,0.00,22.3,20.9,00.0,31.2,24.2,12.5,0000.0,0003.13,0009.49,0002.01
2022-11-07 12:56:00,,0825.7,5.01,0.00,22.3,20.9,00.0,31.2,24.2,12.5,0000.0,0003.14,0008.95,0002.00
2022-11-07 12:57:00,,0825.8,5.00,0.00,22.3,20.9,00.0,31.2,24.2,12.6,0000.0,0003.16,0008.64,0002.02
2022-11-07 12:58:00,,0825.7,5.00,0.00,22.4,21.4,00.0,31.1,24.3,12.6,0000.0,0003.17,0008.62,0002.03
2022-11-07 12:59:00,,0825.7,5.00,0.00,22.5,22.3,00.0,31.1,24.6,12.6,0000.0,0003.16,0008.50,0002.06
